Track STARLINK-11401 now! 10-day predictions STARLINK-11401 is classified as:
1 61876U 24204C 24326.16667824 -.00582815 00000-0 -26307-2 0 9998 2 61876 53.1650 172.0151 0000763 47.6055 284.8384 15.84702934 2518